STARLINK-37455, 69299

Orbit data source: Space-Track

STARLINK-37455, 69299 is a payload satellite owned by SpaceX/Seattle (US) in SSO that was launched on Sat, 30 May 2026 UTC via an FALCON 9 launch vehicle from the Air Force Western Test Range (AFWTR). Payload-class satellites include a variety of spacecraft equipped with specific instruments for various scientific and technological missions. These include communications satellites like Starlink; space stations such as the ISS; scientific satellites like the Hubble; Earth observation satellites from companies like Planet Labs, Umbra, and HawkEye 360; GPS; miniature CubeSats for education and research; and military/defense satellites.

Loading next visibility...
Identifier
69299, 2026-119D
Orbit
SSO
Country
Flag of USUS
Related business
Manufacturer
SpaceX/Seattle
Mission
Operational Commercial Communications
Bus & Motor
STARLINK V2MO, Unknown motor
Mass
575 kg wet, ~530 kg dry
Launch date (UTC)
2026-05-30 (4 months ago)
Launch vehicle
FALCON 9
Launch site
Air Force Western Test Range (AFWTR)
Object type
Payload
Rocket body
Debris
Shape & HBR
Box + 1 Pan, 17.7 m
Radar Cross Section
41.120 m², Large (>1 m²)

Expand to show TLE details & history
Last TLE update: 11 hours ago

TLE from 11 hours ago
0 STARLINK-37455
1 69299U 26119D   26263.78613282  .00011714  00000-0  36469-3 0  9995
2 69299  97.2821 288.4613 0000945  81.0392 279.0957 15.33437277 18706
Epoch: 2026-09-20T18:52Z
TLE epoch observation values (Epoch: 2026-09-20T18:52:01.875Z)
Latitude
-0.0001°
Longitude
5.77818°
Altitude
468.576 km
Speed
7.632 km/s
True Right ascension
19h 13m 50s
True Declination
0° 00' 00"
Sunlit
Object was in daylight at epoch
Visualization orbit readout
Latitude
Unknown
Longitude
Unknown
Altitude
Unknown
Speed
Unknown
Apparent Right ascension
Unknown
Apparent Declination
Unknown
Sunlit
N/A
Visualization observer readout
Local Sidereal Time
23:10:35
Azimuth
Unknown
Elevation
Unknown
Doppler factor
Unknown
Orbital elements
Apogee altitude
463.155 km
Perigee altitude
461.862 km
Semi-major axis
6,840.646 km
Eccentricity
0.00009
Inclination
97.2821°
RAAN
288.4613°
Arg. of periapsis
81.0392°
True anomaly
279.08501°
Mean anomaly
279.0957°
Eccentric anomaly
279.09035°
Mean motion
3.83617 °/min
Orbital period
93.84 mins
BSTAR
0.00036469
Loading maneuver chart data...
Computing Atmospheric mass density...
Loading historical data...
Loading historical data...
Loading historical data...
Loading historical data...
Loading historical data...
Loading historical data...
Loading historical data...

Documentation

Showing up to 5 results
|